This is the latest recevied weather packets stored in our database for station/object KG5MMT-15. If no packets are shown the sender has not sent any weather packets the latest 10 day(s).
| Time | Temp. | Humidity | Pressure | Rain* | Wind** | Luminosity | Snow |
|---|---|---|---|---|---|---|---|
| 1788198472 | 26.11° C | 33% | 0 hPa | 0 mm | - | - | - |
| 1788198172 | 26.67° C | 33% | 0 hPa | 0 mm | - | - | - |
| 1788197872 | 26.67° C | 34% | 0 hPa | 0 mm | - | - | - |
| 1788197572 | 26.67° C | 33% | 0 hPa | 0 mm | - | - | - |
| 1788197272 | 25.56° C | 34% | 0 hPa | 0 mm | - | - | - |
| 1788196972 | 25.56° C | 37% | 0 hPa | 0 mm | - | - | - |
| 1788196672 | 25° C | 36% | 0 hPa | 0 mm | - | - | - |
| 1788196372 | 25° C | 35% | 0 hPa | 0 mm | - | - | - |
| 1788196072 | 24.44° C | 38% | 0 hPa | 0 mm | - | - | - |
| 1788195772 | 24.44° C | 37% | 0 hPa | 0 mm | - | - | - |
| 1788195472 | 24.44° C | 37% | 0 hPa | 0 mm | - | - | - |
| 1788195172 | 25.56° C | 36% | 0 hPa | 0 mm | - | - | - |
| 1788194872 | 25.56° C | 36% | 0 hPa | 0 mm | - | - | - |
| 1788194572 | 25° C | 36% | 0 hPa | 0 mm | - | - | - |
| 1788194272 | 25° C | 36% | 0 hPa | 0 mm | - | - | - |
| 1788193972 | 25° C | 37% | 0 hPa | 0 mm | - | - | - |
| 1788193672 | 25° C | 37% | 0 hPa | 0 mm | - | - | - |
| 1788193372 | 24.44° C | 39% | 0 hPa | 0 mm | - | - | - |
| 1788193072 | 24.44° C | 39% | 0 hPa | 0 mm | - | - | - |
| 1788192779 | 23.89° C | 40% | 0 hPa | 0 mm | - | - | - |
| 1788192472 | 23.89° C | 38% | 0 hPa | 0 mm | - | - | - |
| 1788192172 | 23.89° C | 40% | 0 hPa | 0 mm | - | - | - |
| 1788191872 | 23.33° C | 40% | 0 hPa | 0 mm | - | - | - |
| 1788191572 | 23.33° C | 40% | 0 hPa | 0 mm | - | - | - |
| 1788191272 | 23.33° C | 41% | 0 hPa | 0 mm | - | - | - |
* Rain latest hour (hover to see other rain measurements)
** Current wind speed in m/s (hover to see current wind gust speed)